Home > Weather > Mandalay > Past weeks

Flag for Myanmar Past Weather in Mandalay, Myanmar — Yesterday and Last 2 Weeks

Now
82 °F

Passing clouds.


Feels Like: 91 °F
Forecast: 78 / 89 °F
Wind: No wind

Location: Chittagong Patenga

Current Time: Aug 29, 2016 at 1:35:43 AM

Latest Report: Aug 28, 2016 at 11:30 PM


Visibility: 3 mi

Pressure: 29.71 "Hg

Humidity: 84%

Dew Point: 77 °F

Location of MandalayLocation

Past Weather in Mandalay — Graph

°F

Mandalay Temperature Yesterday

Maximum temperature yesterday: 91 °F (at 12:30 PM)
Minimum temperature yesterday: 81 °F (at 6:30 AM)
Average temperature yesterday: 87 °F

High & Low Weather Summary for the Past Weeks

 TemperatureHumidityPressure
High93 °F (Aug 16, 1:30 PM)100% (Aug 21, 5:30 PM)29.80 "Hg (Aug 21, 5:30 PM)
Low77 °F (Aug 21, 12:30 PM)59% (Aug 22, 11:30 AM)29.33 "Hg (Aug 16, 3:30 PM)
Average85 °F80%29.58 "Hg
* Reported Aug 13 11:30 PM — Aug 28 11:30 PM, Mandalay, Weather by CustomWeather, © 2016

Note: Actual official high and low records may vary slightly from our data, if they occured in-between our weather recording intervals... More about our weather records

Advertising

Mandalay Weather History for the Previous 24 Hours

Scroll right to see more
 ConditionsComfort  
Time TempWeatherWind HumidityBarometerVisibility
11:30 PM
Sun, Aug 28
82 °FPassing clouds.No wind84%29.71 "Hg3 mi
10:30 PM84 °FPassing clouds.No wind79%29.71 "Hg3 mi
9:30 PM84 °FPassing clouds.No wind79%29.71 "Hg3 mi
8:30 PM86 °FPassing clouds.No wind75%29.68 "Hg3 mi
7:30 PM86 °FPassing clouds.No wind75%29.68 "Hg3 mi
6:30 PM88 °FScattered clouds.6 mph70%29.65 "Hg4 mi
5:30 PM90 °FScattered clouds.5 mph67%29.65 "Hg4 mi
4:30 PM91 °FScattered clouds.6 mph63%29.65 "Hg4 mi
3:30 PM91 °FScattered clouds.6 mph63%29.65 "Hg4 mi
2:30 PM91 °FScattered clouds.12 mph63%29.68 "Hg4 mi
1:30 PM91 °FBroken clouds.8 mph67%29.71 "Hg3 mi
12:30 PM91 °FBroken clouds.6 mph67%29.74 "Hg3 mi
11:30 AM88 °FBroken clouds.6 mph75%29.77 "Hg3 mi
10:30 AM88 °FBroken clouds.9 mph70%29.77 "Hg3 mi
9:30 AM88 °FBroken clouds.5 mph75%29.80 "Hg3 mi
8:30 AM82 °FBroken clouds.6 mph89%29.77 "Hg3 mi
7:30 AM82 °FBroken clouds.5 mph89%29.74 "Hg3 mi
6:30 AM81 °FBroken clouds.6 mph89%29.71 "Hg3 mi
Weather by CustomWeather, © 2016

See weather overviewHow to use our weather pages